Notices

What's New in latest Release from April 7th, 2021:

- Updated Glossary, including Speed of Maximum Gust, and Total Hourly Precipitation

- Updated national and regional climate services offices contacts and prices information

- Addition of station inventory lists for 1981-2010, 1971-2000, and 1961-1990 Normals.

If you haven't already, please take our survey and provide feedback about our website: https://eccc.sondage-survey.ca/f/LanguageSelection.aspx?s=442ca660-fcf1-47c0-95a9-59707d6fd709

Hourly Data Report for November 18, 2019

MIRAMICHI RCS
NEW BRUNSWICK
Current Station Operator: ECCC - MSC

47°00'34.000" N
65°27'54.000" W
33.00 m
8100989
71744
ACQ

Download Data

Hourly Data (November 2019)
Hourly Data Report for November 18, 2019
TIME
LST
Temp Definition
°C
Dew Point Definition
°C
Rel Hum Definition
%
Precip. Amount Definition
mm

Wind Dir Definition
10's deg

Wind Spd Definition
km/h
Visibility Definition
km
Stn Press Definition
kPa
Hmdx Definition


Wind Chill Definition


Weather Definition


00:00 -9.5 -10.9 90 0.0 27 3   102.34   -11 LegendNANA
01:00 -10.5 -12.0 88 0.0 13 3   102.28   -12 LegendNANA
02:00 -10.9 -12.5 88 0.0 30 3   102.22   -13 LegendNANA
03:00 -11.6 -13.0 89 0.0 15 1   102.13   -12 LegendNANA
04:00 -11.8 -13.4 88 0.0 0 1   102.09   -12 LegendNANA
05:00 -12.1 -13.7 88 0.0 0 1   102.08   -13 LegendNANA
06:00 -12.4 -14.3 86 0.0   0   101.99     LegendNANA
07:00 -12.4 -14.0 88 0.0 0 1   101.95   -13 LegendNANA
08:00 -12.2 -14.5 83 0.0 28 2   101.96   -13 LegendNANA
09:00 -10.4 -11.9 88 0.0 24 4   101.95   -13 LegendNANA
10:00 -6.3 -9.2 80 0.0 23 3   101.93   -8 LegendNANA
11:00 -3.0 -8.7 65 0.0 1 1   101.84   -3 LegendNANA
12:00 -0.3 -6.5 63 0.0 11 5   101.70   -2 LegendNANA
13:00 1.6 -4.3 65 0.0 8 9   101.57     LegendNANA
14:00 1.4 -2.8 74 0.0 6 12   101.50     LegendNANA
15:00 1.9 -1.9 76 0.0 5 15   101.41     LegendNANA
16:00 1.8 -1.5 78 0.0 6 16   101.33     LegendNANA
17:00 1.8 -1.2 81 0.0 4 13   101.28     LegendNANA
18:00 1.4 -1.4 82 0.0 4 11   101.17     LegendNANA
19:00 1.3 -1.3 83 0.0 3 13   101.05     LegendNANA
20:00 1.2 -1.3 84 0.0 3 12   100.97     LegendNANA
21:00 1.1 -1.3 84 0.0 3 14   100.86     LegendNANA
22:00 1.0 -0.7 88 0.0 3 12   100.68     LegendNANA
23:00 0.9 -0.2 93 0.6 3 12   100.55     LegendNANA

Notes on Data Quality.

Legend

  • E = Estimated
  • M = Missing
  • NA = Not Available*
  • [empty] = Indicates an unobserved value
Date modified: